Year,Month,Day,Hour,Minute,Value (Times are PST for temperature in C)
2014,08,12,00,00,24.70
2014,08,12,00,01,24.70
2014,08,12,00,02,24.60
2014,08,12,00,03,24.40
2014,08,12,00,04,24.30
2014,08,12,00,05,24.20
2014,08,12,00,06,24.10
2014,08,12,00,07,24.00
2014,08,12,00,08,23.90
2014,08,12,00,09,23.80
2014,08,12,00,10,23.80
2014,08,12,00,11,23.80
2014,08,12,00,12,23.80
2014,08,12,00,13,23.80
2014,08,12,00,14,23.80
2014,08,12,00,15,23.80
2014,08,12,00,16,23.80
2014,08,12,00,17,23.80
2014,08,12,00,18,23.80
2014,08,12,00,19,23.70
2014,08,12,00,20,23.60
2014,08,12,00,21,23.60
2014,08,12,00,22,23.50
2014,08,12,00,23,23.50
2014,08,12,00,24,23.40
2014,08,12,00,25,23.40
2014,08,12,00,26,23.40
2014,08,12,00,27,23.50
2014,08,12,00,28,23.50
2014,08,12,00,29,23.50
2014,08,12,00,30,23.60
2014,08,12,00,31,23.60
2014,08,12,00,32,23.60
2014,08,12,00,33,23.60
2014,08,12,00,34,23.60
2014,08,12,00,35,23.60
2014,08,12,00,36,23.60
2014,08,12,00,37,23.60
2014,08,12,00,38,23.50
2014,08,12,00,39,23.40
2014,08,12,00,40,23.30
2014,08,12,00,41,23.20
2014,08,12,00,42,23.10
2014,08,12,00,43,23.10
2014,08,12,00,44,23.00
2014,08,12,00,45,22.90
2014,08,12,00,46,22.90
2014,08,12,00,47,22.80
2014,08,12,00,48,22.80
2014,08,12,00,49,22.80
2014,08,12,00,50,22.80
2014,08,12,00,51,22.70
2014,08,12,00,52,22.70
2014,08,12,00,53,22.60
2014,08,12,00,54,22.60
2014,08,12,00,55,22.60
2014,08,12,00,56,22.50
2014,08,12,00,57,22.50
2014,08,12,00,58,22.40
2014,08,12,00,59,22.40
2014,08,12,01,00,22.40
2014,08,12,01,01,22.30
2014,08,12,01,02,22.30
2014,08,12,01,03,22.30
2014,08,12,01,04,22.30
2014,08,12,01,05,22.20
2014,08,12,01,06,22.20
2014,08,12,01,07,22.20
2014,08,12,01,08,22.20
2014,08,12,01,09,22.10
2014,08,12,01,10,22.10
2014,08,12,01,11,22.10
2014,08,12,01,12,22.10
2014,08,12,01,13,22.10
2014,08,12,01,14,22.10
2014,08,12,01,15,22.10
2014,08,12,01,16,22.20
2014,08,12,01,17,22.20
2014,08,12,01,18,22.10
2014,08,12,01,19,22.10
2014,08,12,01,20,22.10
2014,08,12,01,21,22.10
2014,08,12,01,22,22.00
2014,08,12,01,23,22.00
2014,08,12,01,24,22.00
2014,08,12,01,25,21.90
2014,08,12,01,26,21.90
2014,08,12,01,27,21.90
2014,08,12,01,28,21.90
2014,08,12,01,29,21.80
2014,08,12,01,30,21.80
2014,08,12,01,31,21.80
2014,08,12,01,32,21.80
2014,08,12,01,33,21.80
2014,08,12,01,34,21.80
2014,08,12,01,35,21.80
2014,08,12,01,36,21.80
2014,08,12,01,37,21.80
2014,08,12,01,38,21.80
2014,08,12,01,39,21.80
2014,08,12,01,40,21.80
2014,08,12,01,41,21.80
2014,08,12,01,42,21.80
2014,08,12,01,43,21.80
2014,08,12,01,44,21.80
2014,08,12,01,45,21.80
2014,08,12,01,46,21.80
2014,08,12,01,47,21.70
2014,08,12,01,48,21.70
2014,08,12,01,49,21.60
2014,08,12,01,50,21.60
2014,08,12,01,51,21.60
2014,08,12,01,52,21.60
2014,08,12,01,53,21.60
2014,08,12,01,54,21.60
2014,08,12,01,55,21.60
2014,08,12,01,56,21.60
2014,08,12,01,57,21.60
2014,08,12,01,58,21.60
2014,08,12,01,59,21.60
2014,08,12,02,00,21.60
2014,08,12,02,01,21.60
2014,08,12,02,02,21.60
2014,08,12,02,03,21.60
2014,08,12,02,04,21.60
2014,08,12,02,05,21.60
2014,08,12,02,06,21.60
2014,08,12,02,07,21.60
2014,08,12,02,08,21.60
2014,08,12,02,09,21.60
2014,08,12,02,10,21.70
2014,08,12,02,11,21.70
2014,08,12,02,12,21.80
2014,08,12,02,13,21.90
2014,08,12,02,14,22.00
2014,08,12,02,15,22.10
2014,08,12,02,16,22.20
2014,08,12,02,17,22.20
2014,08,12,02,18,22.30
2014,08,12,02,19,22.30
2014,08,12,02,20,22.30
2014,08,12,02,21,22.40
2014,08,12,02,22,22.40
2014,08,12,02,23,22.50
2014,08,12,02,24,22.50
2014,08,12,02,25,22.60
2014,08,12,02,26,22.60
2014,08,12,02,27,22.60
2014,08,12,02,28,22.60
2014,08,12,02,29,22.60
2014,08,12,02,30,22.60
2014,08,12,02,31,22.60
2014,08,12,02,32,22.50
2014,08,12,02,33,22.40
2014,08,12,02,34,22.40
2014,08,12,02,35,22.30
2014,08,12,02,36,22.30
2014,08,12,02,37,22.20
2014,08,12,02,38,22.20
2014,08,12,02,39,22.10
2014,08,12,02,40,22.00
2014,08,12,02,41,21.90
2014,08,12,02,42,21.90
2014,08,12,02,43,21.80
2014,08,12,02,44,21.80
2014,08,12,02,45,21.80
2014,08,12,02,46,21.70
2014,08,12,02,47,21.70
2014,08,12,02,48,21.60
2014,08,12,02,49,21.60
2014,08,12,02,50,21.60
2014,08,12,02,51,21.50
2014,08,12,02,52,21.40
2014,08,12,02,53,21.40
2014,08,12,02,54,21.30
2014,08,12,02,55,21.30
2014,08,12,02,56,21.30
2014,08,12,02,57,21.20
2014,08,12,02,58,21.10
2014,08,12,02,59,21.10
2014,08,12,03,00,21.00
2014,08,12,03,01,21.00
2014,08,12,03,02,20.90
2014,08,12,03,03,20.90
2014,08,12,03,06,20.80
2014,08,12,03,07,20.80
2014,08,12,03,08,20.80
2014,08,12,03,09,20.80
2014,08,12,03,10,20.80
2014,08,12,03,11,20.80
2014,08,12,03,12,20.70
2014,08,12,03,13,20.70
2014,08,12,03,14,20.70
2014,08,12,03,15,20.70
2014,08,12,03,16,20.60
2014,08,12,03,17,20.60
2014,08,12,03,18,20.60
2014,08,12,03,19,20.60
2014,08,12,03,20,20.60
2014,08,12,03,21,20.60
2014,08,12,03,22,20.60
2014,08,12,03,23,20.60
2014,08,12,03,24,20.70
2014,08,12,03,25,20.70
2014,08,12,03,26,20.70
2014,08,12,03,27,20.70
2014,08,12,03,28,20.70
2014,08,12,03,29,20.70
2014,08,12,03,30,20.70
2014,08,12,03,31,20.70
2014,08,12,03,32,20.60
2014,08,12,03,33,20.60
2014,08,12,03,34,20.60
2014,08,12,03,35,20.60
2014,08,12,03,36,20.60
2014,08,12,03,37,20.60
2014,08,12,03,38,20.60
2014,08,12,03,39,20.60
2014,08,12,03,40,20.60
2014,08,12,03,41,20.60
2014,08,12,03,42,20.60
2014,08,12,03,43,20.60
2014,08,12,03,44,20.70
2014,08,12,03,45,20.70
2014,08,12,03,46,20.70
2014,08,12,03,47,20.70
2014,08,12,03,48,20.60
2014,08,12,03,49,20.60
2014,08,12,03,50,20.60
2014,08,12,03,51,20.60
2014,08,12,03,52,20.50
2014,08,12,03,53,20.50
2014,08,12,03,54,20.50
2014,08,12,03,55,20.40
2014,08,12,03,56,20.50
2014,08,12,03,57,20.50
2014,08,12,03,58,20.50
2014,08,12,03,59,20.50
2014,08,12,04,00,20.50
2014,08,12,04,01,20.50
2014,08,12,04,02,20.60
2014,08,12,04,03,20.60
2014,08,12,04,04,20.60
2014,08,12,04,05,20.60
2014,08,12,04,06,20.60
2014,08,12,04,07,20.60
2014,08,12,04,08,20.60
2014,08,12,04,09,20.60
2014,08,12,04,10,20.60
2014,08,12,04,11,20.60
2014,08,12,04,12,20.60
2014,08,12,04,13,20.60
2014,08,12,04,14,20.60
2014,08,12,04,15,20.60
2014,08,12,04,16,20.50
2014,08,12,04,17,20.50
2014,08,12,04,18,20.50
2014,08,12,04,19,20.50
2014,08,12,04,20,20.50
2014,08,12,04,21,20.40
2014,08,12,04,22,20.40
2014,08,12,04,23,20.40
2014,08,12,04,24,20.40
2014,08,12,04,25,20.40
2014,08,12,04,26,20.40
2014,08,12,04,27,20.40
2014,08,12,04,28,20.50
2014,08,12,04,29,20.50
2014,08,12,04,30,20.60
2014,08,12,04,31,20.60
2014,08,12,04,32,20.60
2014,08,12,04,33,20.70
2014,08,12,04,34,20.70
2014,08,12,04,35,20.70
2014,08,12,04,36,20.80
2014,08,12,04,37,20.80
2014,08,12,04,38,20.80
2014,08,12,04,39,20.80
2014,08,12,04,40,20.80
2014,08,12,04,41,20.80
2014,08,12,04,42,20.80
2014,08,12,04,43,20.70
2014,08,12,04,44,20.70
2014,08,12,04,45,20.70
2014,08,12,04,46,20.70
2014,08,12,04,47,20.80
2014,08,12,04,48,20.80
2014,08,12,04,49,20.80
2014,08,12,04,50,20.90
2014,08,12,04,51,20.90
2014,08,12,04,52,20.90
2014,08,12,04,53,20.90
2014,08,12,04,54,20.90
2014,08,12,04,55,20.90
2014,08,12,04,56,20.90
2014,08,12,04,57,21.00
2014,08,12,04,58,21.00
2014,08,12,04,59,21.00
2014,08,12,05,00,21.00
2014,08,12,05,01,21.00
2014,08,12,05,02,21.00
2014,08,12,05,03,21.00
2014,08,12,05,04,21.00
2014,08,12,05,05,21.00
2014,08,12,05,06,20.90
2014,08,12,05,07,20.90
2014,08,12,05,08,20.90
2014,08,12,05,09,21.00
2014,08,12,05,10,20.90
2014,08,12,05,11,20.90
2014,08,12,05,12,20.90
2014,08,12,05,13,20.90
2014,08,12,05,14,20.90
2014,08,12,05,15,20.90
2014,08,12,05,16,21.00
2014,08,12,05,17,21.00
2014,08,12,05,18,21.00
2014,08,12,05,19,21.00
2014,08,12,05,20,21.00
2014,08,12,05,21,21.00
2014,08,12,05,22,21.00
2014,08,12,05,23,21.00
2014,08,12,05,24,20.90
2014,08,12,05,25,20.90
2014,08,12,05,26,21.00
2014,08,12,05,27,21.00
2014,08,12,05,28,21.00
2014,08,12,05,29,21.10
2014,08,12,05,30,21.10
2014,08,12,05,31,21.10
2014,08,12,05,32,21.10
2014,08,12,05,33,21.20
2014,08,12,05,34,21.20
2014,08,12,05,35,21.20
2014,08,12,05,36,21.20
2014,08,12,05,37,21.30
2014,08,12,05,38,21.30
2014,08,12,05,39,21.30
2014,08,12,05,40,21.30
2014,08,12,05,41,21.30
2014,08,12,05,42,21.30
2014,08,12,05,43,21.40
2014,08,12,05,44,21.40
2014,08,12,05,45,21.40
2014,08,12,05,46,21.50
2014,08,12,05,47,21.50
2014,08,12,05,48,21.50
2014,08,12,05,49,21.60
2014,08,12,05,50,21.60
2014,08,12,05,51,21.60
2014,08,12,05,52,21.70
2014,08,12,05,53,21.70
2014,08,12,05,54,21.70
2014,08,12,05,55,21.70
2014,08,12,05,56,21.70
2014,08,12,05,57,21.80
2014,08,12,05,58,21.80
2014,08,12,05,59,21.80
2014,08,12,06,00,21.80
2014,08,12,06,01,21.80
2014,08,12,06,02,21.90
2014,08,12,06,03,22.00
2014,08,12,06,04,22.00
2014,08,12,06,05,22.10
2014,08,12,06,06,22.10
2014,08,12,06,07,22.10
2014,08,12,06,08,22.20
2014,08,12,06,09,22.20
2014,08,12,06,10,22.20
2014,08,12,06,11,22.10
2014,08,12,06,12,22.10
2014,08,12,06,13,22.10
2014,08,12,06,14,22.10
2014,08,12,06,15,22.00
2014,08,12,06,16,22.00
2014,08,12,06,17,22.00
2014,08,12,06,18,21.90
2014,08,12,06,19,21.90
2014,08,12,06,20,21.90
2014,08,12,06,21,21.90
2014,08,12,06,22,21.90
2014,08,12,06,23,21.80
2014,08,12,06,24,21.80
2014,08,12,06,25,21.80
2014,08,12,06,26,21.80
2014,08,12,06,27,21.80
2014,08,12,06,28,21.80
2014,08,12,06,29,21.80
2014,08,12,06,30,21.80
2014,08,12,06,31,21.80
2014,08,12,06,32,21.80
2014,08,12,06,33,21.90
2014,08,12,06,34,21.90
2014,08,12,06,35,21.90
2014,08,12,06,36,21.80
2014,08,12,06,37,21.80
2014,08,12,06,38,21.80
2014,08,12,06,39,21.80
2014,08,12,06,40,21.80
2014,08,12,06,41,21.70
2014,08,12,06,42,21.70
2014,08,12,06,43,21.60
2014,08,12,06,44,21.60
2014,08,12,06,45,21.60
2014,08,12,06,46,21.50
2014,08,12,06,47,21.50
2014,08,12,06,48,21.50
2014,08,12,06,49,21.50
2014,08,12,06,50,21.40
2014,08,12,06,51,21.40
2014,08,12,06,52,21.40
2014,08,12,06,53,21.40
2014,08,12,06,54,21.30
2014,08,12,06,55,21.30
2014,08,12,06,56,21.30
2014,08,12,06,57,21.20
2014,08,12,06,58,21.20
2014,08,12,06,59,21.20
2014,08,12,07,00,21.10
2014,08,12,07,01,21.10
2014,08,12,07,02,21.00
2014,08,12,07,03,21.00
2014,08,12,07,04,21.00
2014,08,12,07,05,20.90
2014,08,12,07,06,20.90
2014,08,12,07,07,20.80
2014,08,12,07,08,20.80
2014,08,12,07,09,20.70
2014,08,12,07,10,20.70
2014,08,12,07,11,20.70
2014,08,12,07,12,20.60
2014,08,12,07,13,20.50
2014,08,12,07,14,20.50
2014,08,12,07,15,20.40
2014,08,12,07,16,20.30
2014,08,12,07,17,20.30
2014,08,12,07,18,20.20
2014,08,12,07,19,20.20
2014,08,12,07,20,20.20
2014,08,12,07,21,20.10
2014,08,12,07,22,20.10
2014,08,12,07,23,20.10
2014,08,12,07,24,20.00
2014,08,12,07,25,20.00
2014,08,12,07,26,19.90
2014,08,12,07,27,19.90
2014,08,12,07,28,19.90
2014,08,12,07,29,19.90
2014,08,12,07,30,19.90
2014,08,12,07,31,19.90
2014,08,12,07,32,19.80
2014,08,12,07,33,19.90
2014,08,12,07,34,19.90
2014,08,12,07,35,19.90
2014,08,12,07,36,19.90
2014,08,12,07,37,19.90
2014,08,12,07,38,19.90
2014,08,12,07,39,19.90
2014,08,12,07,40,19.90
2014,08,12,07,41,20.00
2014,08,12,07,42,20.00
2014,08,12,07,43,20.10
2014,08,12,07,44,20.10
2014,08,12,07,45,20.10
2014,08,12,07,46,20.20
2014,08,12,07,47,20.20
2014,08,12,07,48,20.20
2014,08,12,07,49,20.20
2014,08,12,07,50,20.30
2014,08,12,07,51,20.30
2014,08,12,07,52,20.30
2014,08,12,07,53,20.30
2014,08,12,07,54,20.40
2014,08,12,07,55,20.40
2014,08,12,07,56,20.40
2014,08,12,07,57,20.50
2014,08,12,07,58,20.50
2014,08,12,07,59,20.50
2014,08,12,08,00,20.50
2014,08,12,08,01,20.60
2014,08,12,08,02,20.60
2014,08,12,08,03,20.60
2014,08,12,08,04,20.70
2014,08,12,08,05,20.70
2014,08,12,08,06,20.70
2014,08,12,08,07,20.80
2014,08,12,08,08,20.80
2014,08,12,08,09,20.80
2014,08,12,08,10,20.90
2014,08,12,08,11,20.90
2014,08,12,08,12,20.90
2014,08,12,08,13,21.00
2014,08,12,08,14,21.00
2014,08,12,08,15,21.10
2014,08,12,08,16,21.10
2014,08,12,08,17,21.10
2014,08,12,08,18,21.10
2014,08,12,08,19,21.10
2014,08,12,08,20,21.10
2014,08,12,08,21,21.10
2014,08,12,08,22,21.10
2014,08,12,08,23,21.10
2014,08,12,08,24,21.10
2014,08,12,08,25,21.10
2014,08,12,08,26,21.10
2014,08,12,08,27,21.10
2014,08,12,08,28,21.10
2014,08,12,08,29,21.10
2014,08,12,08,30,21.10
2014,08,12,08,31,21.20
2014,08,12,08,32,21.20
2014,08,12,08,33,21.20
2014,08,12,08,34,21.30
2014,08,12,08,35,21.30
2014,08,12,08,36,21.40
2014,08,12,08,37,21.40
2014,08,12,08,38,21.50
2014,08,12,08,39,21.60
2014,08,12,08,40,21.60
2014,08,12,08,41,21.70
2014,08,12,08,42,21.70
2014,08,12,08,43,21.80
2014,08,12,08,44,21.80
2014,08,12,08,45,21.80
2014,08,12,08,46,21.80
2014,08,12,08,47,21.90
2014,08,12,08,48,21.90
2014,08,12,08,49,22.00
2014,08,12,08,50,22.10
2014,08,12,08,51,22.10
2014,08,12,08,52,22.10
2014,08,12,08,53,22.20
2014,08,12,08,54,22.20
2014,08,12,08,55,22.20
2014,08,12,08,56,22.20
2014,08,12,08,57,22.20
2014,08,12,08,58,22.20
2014,08,12,08,59,22.20
2014,08,12,09,00,22.30
2014,08,12,09,01,22.30
2014,08,12,09,02,22.30
2014,08,12,09,03,22.40
2014,08,12,09,04,22.40
2014,08,12,09,05,22.40
2014,08,12,09,06,22.40
2014,08,12,09,07,22.40
2014,08,12,09,08,22.50
2014,08,12,09,09,22.50
2014,08,12,09,10,22.50
2014,08,12,09,11,22.60
2014,08,12,09,12,22.60
2014,08,12,09,13,22.60
2014,08,12,09,14,22.60
2014,08,12,09,15,22.60
2014,08,12,09,16,22.70
2014,08,12,09,17,22.70
2014,08,12,09,18,22.70
2014,08,12,09,19,22.80
2014,08,12,09,20,22.80
2014,08,12,09,21,22.90
2014,08,12,09,22,22.90
2014,08,12,09,23,22.90
2014,08,12,09,24,23.00
2014,08,12,09,25,23.00
2014,08,12,09,26,23.00
2014,08,12,09,27,23.00
2014,08,12,09,28,22.90
2014,08,12,09,29,22.90
2014,08,12,09,30,22.90
2014,08,12,09,31,22.80
2014,08,12,09,32,22.80
2014,08,12,09,33,22.80
2014,08,12,09,34,22.70
2014,08,12,09,35,22.70
2014,08,12,09,36,22.70
2014,08,12,09,37,22.70
2014,08,12,09,38,22.80
2014,08,12,09,39,22.80
2014,08,12,09,40,22.80
2014,08,12,09,41,22.80
2014,08,12,09,42,22.80
2014,08,12,09,43,22.90
2014,08,12,09,44,22.90
2014,08,12,09,45,23.00
2014,08,12,09,46,23.00
2014,08,12,09,47,23.10
2014,08,12,09,48,23.10
2014,08,12,09,49,23.20
2014,08,12,09,50,23.20
2014,08,12,09,51,23.20
2014,08,12,09,52,23.20
2014,08,12,09,53,23.20
2014,08,12,09,54,23.20
2014,08,12,09,55,23.20
2014,08,12,09,56,23.30
2014,08,12,09,57,23.30
2014,08,12,09,58,23.40
2014,08,12,09,59,23.40
2014,08,12,10,00,23.40
2014,08,12,10,01,23.50
2014,08,12,10,02,23.50
2014,08,12,10,03,23.50
2014,08,12,10,04,23.50
2014,08,12,10,05,23.60
2014,08,12,10,06,23.60
2014,08,12,10,07,23.70
2014,08,12,10,08,23.70
2014,08,12,10,09,23.70
2014,08,12,10,10,23.80
2014,08,12,10,11,23.80
2014,08,12,10,12,23.80
2014,08,12,10,13,23.80
2014,08,12,10,14,23.80
2014,08,12,10,15,23.80
2014,08,12,10,16,23.90
2014,08,12,10,17,23.90
2014,08,12,10,18,24.00
2014,08,12,10,19,24.10
2014,08,12,10,20,24.10
2014,08,12,10,21,24.10
2014,08,12,10,22,24.10
2014,08,12,10,23,24.10
2014,08,12,10,24,24.10
2014,08,12,10,25,24.10
2014,08,12,10,26,24.10
2014,08,12,10,27,24.20
2014,08,12,10,28,24.30
2014,08,12,10,29,24.30
2014,08,12,10,30,24.40
2014,08,12,10,31,24.50
2014,08,12,10,32,24.60
2014,08,12,10,33,24.70
2014,08,12,10,34,24.80
2014,08,12,10,35,24.90
2014,08,12,10,36,24.90
2014,08,12,10,37,25.00
2014,08,12,10,38,25.00
2014,08,12,10,39,25.00
2014,08,12,10,40,24.90
2014,08,12,10,41,24.70
2014,08,12,10,42,24.70
2014,08,12,10,43,24.60
2014,08,12,10,44,24.40
2014,08,12,10,45,24.20
2014,08,12,10,46,24.00
2014,08,12,10,47,23.80
2014,08,12,10,48,23.80
2014,08,12,10,49,23.70
2014,08,12,10,50,23.70
2014,08,12,10,51,23.60
2014,08,12,10,52,23.60
2014,08,12,10,53,23.60
2014,08,12,10,54,23.60
2014,08,12,10,55,23.50
2014,08,12,10,56,23.50
2014,08,12,10,57,23.40
2014,08,12,10,58,23.40
2014,08,12,10,59,23.30
2014,08,12,11,00,23.30
2014,08,12,11,01,23.20
2014,08,12,11,02,23.00
2014,08,12,11,03,22.80
2014,08,12,11,04,22.60
2014,08,12,11,05,22.40
2014,08,12,11,06,22.30
2014,08,12,11,07,22.10
2014,08,12,11,08,22.00
2014,08,12,11,09,21.90
2014,08,12,11,10,21.80
2014,08,12,11,11,21.70
2014,08,12,11,12,21.60
2014,08,12,11,13,21.50
2014,08,12,11,14,21.50
2014,08,12,11,15,21.40
2014,08,12,11,16,21.40
2014,08,12,11,17,21.40
2014,08,12,11,18,21.40
2014,08,12,11,19,21.40
2014,08,12,11,20,21.40
2014,08,12,11,21,21.50
2014,08,12,11,22,21.60
2014,08,12,11,23,21.60
2014,08,12,11,24,21.60
2014,08,12,11,25,21.70
2014,08,12,11,26,21.70
2014,08,12,11,27,21.80
2014,08,12,11,28,21.80
2014,08,12,11,29,21.90
2014,08,12,11,30,21.90
2014,08,12,11,31,22.00
2014,08,12,11,32,22.00
2014,08,12,11,33,22.10
2014,08,12,11,34,22.10
2014,08,12,11,35,22.10
2014,08,12,11,36,22.20
2014,08,12,11,37,22.20
2014,08,12,11,38,22.20
2014,08,12,11,39,22.30
2014,08,12,11,40,22.30
2014,08,12,11,41,22.30
2014,08,12,11,42,22.30
2014,08,12,11,43,22.30
2014,08,12,11,44,22.30
2014,08,12,11,45,22.30
2014,08,12,11,46,22.30
2014,08,12,11,47,22.30
2014,08,12,11,48,22.30
2014,08,12,11,49,22.30
2014,08,12,11,50,22.30
2014,08,12,11,51,22.30
2014,08,12,11,52,22.30
2014,08,12,11,53,22.30
2014,08,12,11,54,22.30
2014,08,12,11,55,22.30
2014,08,12,11,56,22.20
2014,08,12,11,57,22.20
2014,08,12,11,58,22.20
2014,08,12,11,59,22.10
2014,08,12,12,00,22.10
2014,08,12,12,01,22.10
2014,08,12,12,02,22.00
2014,08,12,12,03,22.00
2014,08,12,12,04,22.00
2014,08,12,12,05,22.00
2014,08,12,12,06,21.90
2014,08,12,12,07,21.90
2014,08,12,12,08,21.90
2014,08,12,12,09,21.80
2014,08,12,12,10,21.80
2014,08,12,12,11,21.80
2014,08,12,12,12,21.70
2014,08,12,12,13,21.60
2014,08,12,12,14,21.60
2014,08,12,12,15,21.50
2014,08,12,12,16,21.40
2014,08,12,12,17,21.40
2014,08,12,12,18,21.30
2014,08,12,12,19,21.30
2014,08,12,12,20,21.20
2014,08,12,12,21,21.20
2014,08,12,12,22,21.20
2014,08,12,12,23,21.10
2014,08,12,12,24,21.10
2014,08,12,12,25,21.10
2014,08,12,12,26,21.10
2014,08,12,12,27,21.00
2014,08,12,12,28,21.00
2014,08,12,12,29,21.00
2014,08,12,12,30,21.00
2014,08,12,12,31,21.00
2014,08,12,12,32,21.00
2014,08,12,12,33,21.00
2014,08,12,12,34,20.90
2014,08,12,12,35,20.90
2014,08,12,12,36,20.90
2014,08,12,12,37,20.90
2014,08,12,12,38,20.90
2014,08,12,12,39,20.90
2014,08,12,12,40,20.90
2014,08,12,12,41,20.90
2014,08,12,12,42,20.90
2014,08,12,12,43,20.90
2014,08,12,12,44,21.00
2014,08,12,12,45,21.00
2014,08,12,12,46,21.00
2014,08,12,12,47,21.10
2014,08,12,12,48,21.10
2014,08,12,12,49,21.10
2014,08,12,12,50,21.10
2014,08,12,12,51,21.10
2014,08,12,12,52,21.00
2014,08,12,12,53,21.00
2014,08,12,12,54,20.90
2014,08,12,12,55,20.90
2014,08,12,12,56,20.90
2014,08,12,12,57,20.90
2014,08,12,12,58,20.90
2014,08,12,12,59,20.80
2014,08,12,13,00,20.80
2014,08,12,13,01,20.80
2014,08,12,13,02,20.80
2014,08,12,13,03,20.80
2014,08,12,13,04,20.70
2014,08,12,13,05,20.70
2014,08,12,13,06,20.70
2014,08,12,13,07,20.60
2014,08,12,13,08,20.60
2014,08,12,13,09,20.60
2014,08,12,13,10,20.60
2014,08,12,13,11,20.50
2014,08,12,13,12,20.40
2014,08,12,13,13,20.40
2014,08,12,13,14,20.40
2014,08,12,13,15,20.40
2014,08,12,13,16,20.30
2014,08,12,13,17,20.30
2014,08,12,13,18,20.30
2014,08,12,13,19,20.30
2014,08,12,13,20,20.20
2014,08,12,13,21,20.20
2014,08,12,13,22,20.20
2014,08,12,13,23,20.20
2014,08,12,13,24,20.10
2014,08,12,13,25,20.00
2014,08,12,13,26,19.90
2014,08,12,13,27,19.90
2014,08,12,13,28,19.80
2014,08,12,13,29,19.80
2014,08,12,13,30,19.80
2014,08,12,13,31,19.80
2014,08,12,13,32,19.80
2014,08,12,13,33,19.70
2014,08,12,13,34,19.70
2014,08,12,13,35,19.70
2014,08,12,13,36,19.70
2014,08,12,13,37,19.70
2014,08,12,13,38,19.70
2014,08,12,13,39,19.70
2014,08,12,13,40,19.70
2014,08,12,13,41,19.70
2014,08,12,13,42,19.70
2014,08,12,13,43,19.70
2014,08,12,13,44,19.70
2014,08,12,13,45,19.80
2014,08,12,13,46,19.80
2014,08,12,13,47,19.80
2014,08,12,13,48,19.80
2014,08,12,13,49,19.80
2014,08,12,13,50,19.90
2014,08,12,13,51,19.90
2014,08,12,13,52,20.00
2014,08,12,13,53,20.00
2014,08,12,13,54,20.10
2014,08,12,13,55,20.10
2014,08,12,13,56,20.10
2014,08,12,13,57,20.20
2014,08,12,13,58,20.30
2014,08,12,13,59,20.30
2014,08,12,14,00,20.40
2014,08,12,14,01,20.40
2014,08,12,14,02,20.30
2014,08,12,14,03,20.40
2014,08,12,14,04,20.40
2014,08,12,14,05,20.40
2014,08,12,14,06,20.40
2014,08,12,14,07,20.40
2014,08,12,14,08,20.40
2014,08,12,14,09,20.40
2014,08,12,14,10,20.40
2014,08,12,14,11,20.50
2014,08,12,14,12,20.50
2014,08,12,14,13,20.50
2014,08,12,14,14,20.60
2014,08,12,14,15,20.60
2014,08,12,14,16,20.70
2014,08,12,14,17,20.70
2014,08,12,14,18,20.80
2014,08,12,14,19,20.80
2014,08,12,14,20,20.80
2014,08,12,14,21,20.80
2014,08,12,14,22,20.80
2014,08,12,14,23,20.80
2014,08,12,14,24,20.80
2014,08,12,14,25,20.80
2014,08,12,14,26,20.80
2014,08,12,14,27,20.80
2014,08,12,14,28,20.80
2014,08,12,14,29,20.80
2014,08,12,14,30,20.80
2014,08,12,14,31,20.80
2014,08,12,14,32,20.80
2014,08,12,14,33,20.80
2014,08,12,14,34,20.80
2014,08,12,14,35,20.80
2014,08,12,14,36,20.80
2014,08,12,14,37,20.80
2014,08,12,14,38,20.80
2014,08,12,14,39,20.80
2014,08,12,14,40,20.90
2014,08,12,14,41,20.90
2014,08,12,14,42,21.00
2014,08,12,14,43,21.00
2014,08,12,14,44,21.10
2014,08,12,14,45,21.10
2014,08,12,14,46,21.20
2014,08,12,14,47,21.30
2014,08,12,14,48,21.30
2014,08,12,14,49,21.40
2014,08,12,14,50,21.50
2014,08,12,14,51,21.50
2014,08,12,14,52,21.60
2014,08,12,14,53,21.70
2014,08,12,14,54,21.70
2014,08,12,14,55,21.70
2014,08,12,14,56,21.80
2014,08,12,14,57,21.80
2014,08,12,14,58,21.80
2014,08,12,14,59,21.80
2014,08,12,15,00,21.80
2014,08,12,15,01,21.90
2014,08,12,15,02,21.90
2014,08,12,15,03,21.90
2014,08,12,15,04,22.00
2014,08,12,15,05,22.00
2014,08,12,15,06,22.10
2014,08,12,15,07,22.10
2014,08,12,15,08,22.10
2014,08,12,15,09,22.10
2014,08,12,15,10,22.10
2014,08,12,15,11,22.20
2014,08,12,15,12,22.20
2014,08,12,15,13,22.30
2014,08,12,15,14,22.30
2014,08,12,15,15,22.30
2014,08,12,15,16,22.30
2014,08,12,15,17,22.40
2014,08,12,15,18,22.40
2014,08,12,15,19,22.40
2014,08,12,15,20,22.40
2014,08,12,15,21,22.40
2014,08,12,15,22,22.50
2014,08,12,15,23,22.50
2014,08,12,15,24,22.60
2014,08,12,15,25,22.70
2014,08,12,15,26,22.80
2014,08,12,15,27,22.90
2014,08,12,15,28,23.00
2014,08,12,15,29,23.10
2014,08,12,15,30,23.10
2014,08,12,15,31,23.20
2014,08,12,15,32,23.30
2014,08,12,15,33,23.30
2014,08,12,15,34,23.30
2014,08,12,15,35,23.30
2014,08,12,15,36,23.30
2014,08,12,15,37,23.30
2014,08,12,15,38,23.30
2014,08,12,15,39,23.30
2014,08,12,15,40,23.30
2014,08,12,15,41,23.30
2014,08,12,15,42,23.30
2014,08,12,15,43,23.30
2014,08,12,15,44,23.30
2014,08,12,15,45,23.30
2014,08,12,15,46,23.20
2014,08,12,15,47,23.20
2014,08,12,15,48,23.10
2014,08,12,15,49,23.10
2014,08,12,15,50,23.00
2014,08,12,15,51,23.00
2014,08,12,15,52,22.90
2014,08,12,15,53,22.80
2014,08,12,15,54,22.80
2014,08,12,15,55,22.70
2014,08,12,15,56,22.70
2014,08,12,15,57,22.60
2014,08,12,15,58,22.50
2014,08,12,15,59,22.40
2014,08,12,16,00,22.40
2014,08,12,16,01,22.40
2014,08,12,16,02,22.30
2014,08,12,16,03,22.30
2014,08,12,16,04,22.20
2014,08,12,16,05,22.20
2014,08,12,16,06,22.20
2014,08,12,16,07,22.10
2014,08,12,16,08,22.10
2014,08,12,16,09,22.10
2014,08,12,16,10,22.00
2014,08,12,16,11,22.00
2014,08,12,16,12,22.00
2014,08,12,16,13,21.90
2014,08,12,16,14,21.90
2014,08,12,16,15,21.90
2014,08,12,16,16,21.90
2014,08,12,16,17,21.90
2014,08,12,16,18,21.90
2014,08,12,16,19,21.90
2014,08,12,16,20,21.90
2014,08,12,16,21,21.90
2014,08,12,16,22,21.90
2014,08,12,16,23,21.90
2014,08,12,16,24,21.90
2014,08,12,16,25,21.90
2014,08,12,16,26,22.00
2014,08,12,16,27,22.00
2014,08,12,16,28,22.00
2014,08,12,16,29,22.00
2014,08,12,16,30,22.00
2014,08,12,16,31,22.10
2014,08,12,16,32,22.10
2014,08,12,16,33,22.10
2014,08,12,16,34,22.20
2014,08,12,16,35,22.20
2014,08,12,16,36,22.20
2014,08,12,16,37,22.30
2014,08,12,16,38,22.30
2014,08,12,16,39,22.30
2014,08,12,16,40,22.40
2014,08,12,16,41,22.40
2014,08,12,16,42,22.50
2014,08,12,16,43,22.50
2014,08,12,16,44,22.60
2014,08,12,16,45,22.60
2014,08,12,16,46,22.60
2014,08,12,16,47,22.70
2014,08,12,16,48,22.70
2014,08,12,16,49,22.70
2014,08,12,16,50,22.70
2014,08,12,16,51,22.80
2014,08,12,16,52,22.80
2014,08,12,16,53,22.80
2014,08,12,16,54,22.80
2014,08,12,16,55,22.80
2014,08,12,16,56,22.80
2014,08,12,16,57,22.90
2014,08,12,16,58,22.90
2014,08,12,16,59,22.90
2014,08,12,17,00,22.90
2014,08,12,17,01,22.90
2014,08,12,17,02,22.90
2014,08,12,17,03,22.90
2014,08,12,17,04,22.90
2014,08,12,17,05,22.90
2014,08,12,17,06,22.90
2014,08,12,17,07,23.00
2014,08,12,17,08,23.00
2014,08,12,17,09,23.10
2014,08,12,17,10,23.10
2014,08,12,17,11,23.10
2014,08,12,17,12,23.10
2014,08,12,17,13,23.10
2014,08,12,17,14,23.20
2014,08,12,17,15,23.20
2014,08,12,17,16,23.20
2014,08,12,17,17,23.20
2014,08,12,17,18,23.30
2014,08,12,17,19,23.30
2014,08,12,17,20,23.30
2014,08,12,17,21,23.40